sat.trackr.live / text

‹ back to catalog

STARLINK-36074

NORAD 66900 · 2025-283Y

PAYLOAD ACTIVE UNKNOWN

§ Identity

Operator
Country
US
Launch date
2025-12-04
Launch site
AFWTR
Launch vehicle
Mass (kg)
RCS (m²)

Purposes: comms

External: N2YO · Heavens-Above · Gunter

§ Orbital elements

Epoch: 2026-05-25T02:16:48.920160Z

Period
93.85 min
Inclination
53.1594°
Eccentricity
0.0001013
Mean motion
15.34398299 rev/d
Perigee alt
462.0 km
Apogee alt
463.4 km
Semi-major
6,840.8 km
B*
2.7919e-4
RAAN
29.1623°
Arg perigee
78.7455°
Mean anomaly
281.3661°
Rev number
2,754

§ Raw data

STARLINK-360741 66900U 25283Y   26145.09501065  .00009068  00000+0  27919-3 0  99982 66900  53.1594  29.1623 0001013  78.7455 281.3661 15.34398299 27542

JSON: /api/v1/satellites/66900 · /tle

For live sub-satellite position, see the globe view (requires WebGL).

§ Visibility from observer

Set your observer location to see the next 7 days of passes ≥ 10°. The values pass through the URL so the page stays shareable.

No JS? Fill the form by hand. The geolocation button needs JavaScript.